Location: Sungai Dangang
(2.7500°N, 113.8333°E)
Time: 22:57:55
(UTC+00:00)

ARIANE 5 DEB (SYLDA) - Pass Details

Date: 16 May 2021
Orbit: 647 x 36023 km, 4.3° (Epoch: 15 June)

Event Time Altitude Azimuth Distance (km) Brightness Sun altitude
Exits shadow 20:50:32 41° 232° (SW) 1,083 3.8 -20.3°
Maximum altitude 20:51:43 56° 178° (S) 811 3.5 -20.0°
Drops below altitude 10° 20:55:23 10° 98° (E) 2,081 6.6 -19.2°
Sets 20:57:44 0° 93° (E) 3,289 8.0 -18.6°
